Birmingham, AL

10:01 PM CDT on August 21, 2017 (GMT -0500)
Birmingham International

Weather History for KBHM - August, 2013

Change the Weather History Date:

Thursday, August 8, 2013

  Actual Average Record
Temperature  
Mean Temperature 80 °F 81 °F  
Max Temperature 87 °F 91 °F 104 °F (1935)
Min Temperature 72 °F 71 °F 60 °F (1990)
Cooling Degree Days 15 16  
Month to date cooling degree days 117 128  
Year to date cooling degree days 1219 1291  
Since 1 June cooling degree days 954 1009  
Growing Degree Days 30 (Base 50)    
Moisture  
Dew Point 71 °F    
Average Humidity 79    
Maximum Humidity 87    
Minimum Humidity 70    
Precipitation  
Precipitation 1.65 in 0.14 in 2.85 in (1912)
Month to date precipitation 2.86 1.11  
Year to date precipitation 50.83 34.26  
Sea Level Pressure  
Sea Level Pressure 30.01 in    
Wind  
Wind Speed 3 mph (ESE)    
Max Wind Speed 26 mph    
Max Gust Speed 46 mph    
Visibility 8 miles    
Events Rain , Thunderstorm    
T = Trace of Precipitation, MM = Missing Value Source: NWS Daily Summary

Daily Weather History Graph

Daily Weather History Graph

Search for Another Location

Airport or City:

Trip Planner

Search our weather history database for the weather conditions in past years. The results will help you decide how hot, cold, wet, or windy it might be!

Date:

Astronomy

Aug. 08, 2013 Rise Set
Actual Time 6:04 AM CDT 7:40 PM CDT
Civil Twilight 5:37 AM CDT 8:06 PM CDT
Nautical Twilight 5:05 AM CDT 8:38 PM CDT
Astronomical Twilight 4:31 AM CDT 9:12 PM CDT
Moon 7:42 AM CDT (8/8) 8:28 PM CDT (8/8)
Length of Visible Light 14h 29m
Length of Day
13h 35m
Waxing Crescent, 3% of the Moon is Illuminated
Aug 8
Waxing Crescent
Aug 14
First Quarter
Aug 20
Full
Aug 28
Last Quarter
Sep 5
New

Hourly Weather History & Observations

Time (CDT) Temp. Heat Index Dew Point Humidity Pressure Visibility Wind Dir Wind Speed Gust Speed Precip Events Conditions
12:53 AM 75.0 °F - 68.0 °F 79% 29.99 in 10.0 mi Calm Calm - N/A   Clear
1:53 AM 73.9 °F - 69.1 °F 85% 29.99 in 10.0 mi Calm Calm - N/A   Clear
2:53 AM 73.0 °F - 69.1 °F 87% 29.98 in 10.0 mi Calm Calm - N/A   Clear
3:53 AM 73.9 °F - 68.0 °F 82% 29.97 in 10.0 mi ESE 3.5 mph - N/A   Clear
4:53 AM 73.0 °F - 69.1 °F 87% 29.97 in 10.0 mi SE 3.5 mph - N/A   Clear
5:53 AM 73.0 °F - 69.1 °F 87% 29.99 in 10.0 mi Calm Calm - N/A   Clear
6:53 AM 73.9 °F - 70.0 °F 87% 29.99 in 10.0 mi Calm Calm - N/A   Clear
7:53 AM 77.0 °F - 71.1 °F 82% 30.00 in 10.0 mi SE 6.9 mph - N/A   Clear
8:53 AM 79.0 °F - 72.0 °F 79% 30.01 in 10.0 mi Variable 3.5 mph - N/A   Partly Cloudy
9:53 AM 82.9 °F 89.4 °F 73.9 °F 74% 30.02 in 10.0 mi Calm Calm - N/A   Partly Cloudy
10:53 AM 84.9 °F 92.1 °F 73.9 °F 69% 30.03 in 10.0 mi Variable 3.5 mph - N/A   Mostly Cloudy
11:53 AM 84.9 °F 92.1 °F 73.9 °F 69% 30.03 in 10.0 mi Calm Calm - N/A   Mostly Cloudy
12:00 PM 87.8 °F 97.6 °F 75.2 °F 66% 30.05 in 10.0 mi SE 3.5 mph - N/A   Mostly Cloudy
12:41 PM 84.2 °F 92.3 °F 75.2 °F 74% 30.03 in 10.0 mi NE 8.1 mph - N/A Thunderstorm Thunderstorm
12:53 PM 81.0 °F 86.7 °F 75.0 °F 82% 30.00 in 7.0 mi NE 18.4 mph 21.9 mph 0.00 in Rain , Thunderstorm Light Thunderstorms and Rain
1:09 PM 77.0 °F - 71.6 °F 83% 30.04 in 0.5 mi NE 21.9 mph 46.0 mph 0.10 in Rain , Thunderstorm Heavy Thunderstorms and Rain
1:14 PM 75.2 °F - 69.8 °F 83% 30.05 in 0.2 mi NE 18.4 mph 46.0 mph 0.60 in Rain , Thunderstorm Heavy Thunderstorms and Rain
1:21 PM 77.0 °F - 68.0 °F 74% 30.05 in 0.5 mi SSE 12.7 mph 33.4 mph 1.16 in Rain , Thunderstorm Heavy Thunderstorms and Rain
1:35 PM 75.2 °F - 66.2 °F 73% 30.04 in 2.0 mi South 10.4 mph 29.9 mph 1.52 in Rain , Thunderstorm Heavy Thunderstorms and Rain
1:49 PM 75.2 °F - 69.8 °F 83% 30.03 in 3.0 mi SE 10.4 mph - 1.62 in Rain , Thunderstorm Heavy Thunderstorms and Rain
1:53 PM 75.0 °F - 69.1 °F 82% 30.01 in 3.0 mi SSE 9.2 mph - 1.63 in Rain , Thunderstorm Light Thunderstorms and Rain
2:53 PM 77.0 °F - 71.1 °F 82% 29.99 in 10.0 mi SE 3.5 mph - 0.02 in Thunderstorm Thunderstorm
3:21 PM 78.8 °F - 73.4 °F 83% 30.00 in 10.0 mi Calm Calm - N/A   Partly Cloudy
3:53 PM 80.1 °F 83.8 °F 72.0 °F 76% 29.98 in 10.0 mi Calm Calm - N/A   Partly Cloudy
4:53 PM 82.0 °F 87.4 °F 73.0 °F 74% 29.98 in 10.0 mi Calm Calm - N/A   Partly Cloudy
5:53 PM 82.9 °F 90.2 °F 75.0 °F 77% 29.96 in 10.0 mi Calm Calm - N/A   Partly Cloudy
6:53 PM 82.9 °F 89.4 °F 73.9 °F 74% 29.99 in 10.0 mi ESE 5.8 mph - N/A   Partly Cloudy
7:53 PM 80.1 °F 83.8 °F 72.0 °F 76% 30.01 in 10.0 mi East 3.5 mph - N/A   Clear
8:53 PM 78.1 °F - 71.1 °F 79% 30.01 in 10.0 mi ESE 4.6 mph - N/A   Clear
9:53 PM 75.0 °F - 72.0 °F 90% 30.00 in 10.0 mi Calm Calm - N/A   Clear
10:53 PM 77.0 °F - 70.0 °F 79% 29.98 in 10.0 mi Calm Calm - N/A   Clear
11:53 PM 75.0 °F - 71.1 °F 87% 30.00 in 10.0 mi Calm Calm - N/A   Clear